FENGYUN 1C DEB, 30217

Orbit data source: Space-Track

FENGYUN 1C DEB, 30217 is space debris in SSO originally from a launch on Mon, 10 May 1999 UTC launched from the Taiyaun Space Center, China (TSC). Fengyun 1C debris stems from the Chinese weather satellite Fengyun-1C, which was intentionally destroyed by a Chinese anti-satellite missile in 2007. This event dramatically increased the amount of space debris, with thousands of trackable fragments posing hazards to satellites and human spaceflight. The Fengyun 1C debris cloud has become a focal point in discussions about space sustainability and the need for international regulations to prevent the creation of new debris.

Loading next visibility...
Identifier
30217, 1999-025WA
Orbit
SSO
Country
Flag of CNCN / PRC
Related business
Manufacturer
Unknown
Mission
Spacecraft
Bus & Motor
Unknown
Mass
Unknown
Launch date (UTC)
1999-05-10 (27 years ago)
Launch vehicle
Unknown
Launch site
Taiyaun Space Center, China (TSC)
Object type
Payload
Rocket body
Debris
Shape & HBR
Unknown shape, 0.1 m
Radar Cross Section
Medium (>0.1 m² and <1 m²)

Expand to show TLE details & history
Last TLE update: 13 hours ago

TLE from 13 hours ago
0 FENGYUN 1C DEB
1 30217U 99025WA  26236.38931205  .00000493  00000-0  20547-3 0  9995
2 30217  98.4565 215.7031 0140326  74.3868 287.2749 14.25174399 16981
Epoch: 2026-08-24T09:20Z
TLE epoch observation values (Epoch: 2026-08-24T09:20:36.561Z)
Latitude
0.00004°
Longitude
102.87904°
Altitude
782.184 km
Speed
7.478 km/s
True Right ascension
14h 22m 48s
True Declination
0° 00' 00"
Sunlit
Object was in daylight at epoch
Visualization orbit readout
Latitude
Unknown
Longitude
Unknown
Altitude
Unknown
Speed
Unknown
Apparent Right ascension
Unknown
Apparent Declination
Unknown
Sunlit
N/A
Visualization observer readout
Local Sidereal Time
13:13:52
Azimuth
Unknown
Elevation
Unknown
Doppler factor
Unknown
Orbital elements
Apogee altitude
905.844 km
Perigee altitude
704.246 km
Semi-major axis
7,183.182 km
Eccentricity
0.01403
Inclination
98.4565°
RAAN
215.7031°
Arg. of periapsis
74.3868°
True anomaly
285.73157°
Mean anomaly
287.2749°
Eccentric anomaly
286.50402°
Mean motion
3.56507 °/min
Orbital period
100.98 mins
BSTAR
0.00020547
Loading maneuver chart data...
Computing Atmospheric mass density...
Loading historical data...
Loading historical data...
Loading historical data...
Loading historical data...
Loading historical data...
Loading historical data...
Loading historical data...

Documentation

Showing up to 5 results
|